sat.trackr.live / text

‹ back to catalog

STARLINK-31464

NORAD 59318 · 2024-056Y

PAYLOAD ACTIVE UNKNOWN

§ Identity

Operator
Country
US
Launch date
2024-03-24
Launch site
AFETR
Launch vehicle
Mass (kg)
RCS (m²)

Purposes: comms

External: N2YO · Heavens-Above · Gunter

§ Orbital elements

Epoch: 2026-05-25T01:02:11.449248Z

Period
94.27 min
Inclination
42.9994°
Eccentricity
0.0001355
Mean motion
15.27581459 rev/d
Perigee alt
482.1 km
Apogee alt
484.0 km
Semi-major
6,861.2 km
B*
1.2910e-5
RAAN
159.3301°
Arg perigee
308.2007°
Mean anomaly
51.8722°
Rev number
12,283

§ Raw data

STARLINK-314641 59318U 24056Y   26145.04318807  .00000093  00000+0  12910-4 0  99902 59318  42.9994 159.3301 0001355 308.2007  51.8722 15.27581459122839

JSON: /api/v1/satellites/59318 · /tle

For live sub-satellite position, see the globe view (requires WebGL).

§ Visibility from observer

Set your observer location to see the next 7 days of passes ≥ 10°. The values pass through the URL so the page stays shareable.

No JS? Fill the form by hand. The geolocation button needs JavaScript.